When you browse on this site, cookies collect data to enhance your experience and personalize the content and advertising you see.
Visit our Privacy Policy to learn more. By continuing to use the site, you agree to this use of cookies and data.
  • In Romania
  • List of Countries
  • For 7 days
  • Water Temperature
  • Satellite Maps
  • Weather Map
  • Weather Widgets
  • user-avatar
    Login

    Hourly Weather Las Vegas

    Today, 12 December, Wednesday

    Time Temperature Precipitation Wind Pressure Humidity
    00:00 +12°C° 0 mm 1 mps 710 mmHg 39%
    01:00 +10°C° 0 mm 0 mps 709 mmHg 40%
    02:00 +10°C° 0 mm 0 mps 709 mmHg 41%
    03:00 +10°C° 0 mm 0 mps 709 mmHg 41%
    04:00 +11°C° 0 mm 1 mps 709 mmHg 41%
    05:00 +10°C° 0 mm 1 mps 709 mmHg 41%
    06:00 +10°C° 0 mm 1 mps 709 mmHg 41%
    07:00 +10°C° 0 mm 1 mps 709 mmHg 41%
    08:00 +12°C° 0 mm 1 mps 710 mmHg 35%
    09:00 +15°C° 0 mm 1 mps 711 mmHg 30%
    10:00 +17°C° 0 mm 2 mps 712 mmHg 24%
    11:00 +18°C° 0 mm 3 mps 712 mmHg 23%
    12:00 +19°C° 0 mm 4 mps 712 mmHg 23%
    13:00 +19°C° 0 mm 6 mps 712 mmHg 22%
    14:00 +19°C° 0 mm 6 mps 713 mmHg 22%
    15:00 +17°C° 0 mm 6 mps 713 mmHg 22%
    16:00 +16°C° 0 mm 6 mps 713 mmHg 22%
    17:00 +14°C° 0 mm 5 mps 714 mmHg 23%
    18:00 +13°C° 0 mm 4 mps 714 mmHg 23%
    19:00 +11°C° 0 mm 4 mps 715 mmHg 24%
    20:00 +11°C° 0 mm 3 mps 715 mmHg 25%
    21:00 +10°C° 0 mm 3 mps 716 mmHg 25%
    22:00 +9°C° 0 mm 3 mps 716 mmHg 26%
    23:00 +9°C° 0 mm 3 mps 716 mmHg 27%

    Tomorrow, 13 December, Thursday

    Time Temperature Precipitation Wind Pressure Humidity
    00:00 +8°C° 0 mm 2 mps 717 mmHg 28%
    01:00 +8°C° 0 mm 2 mps 717 mmHg 29%
    02:00 +7°C° 0 mm 2 mps 717 mmHg 30%
    03:00 +7°C° 0 mm 2 mps 717 mmHg 31%
    04:00 +6°C° 0 mm 2 mps 717 mmHg 32%
    05:00 +7°C° 0 mm 1 mps 717 mmHg 33%
    06:00 +7°C° 0 mm 1 mps 718 mmHg 33%
    07:00 +7°C° 0 mm 1 mps 718 mmHg 34%
    08:00 +8°C° 0 mm 1 mps 718 mmHg 29%
    09:00 +10°C° 0 mm 1 mps 718 mmHg 25%
    10:00 +12°C° 0 mm 2 mps 719 mmHg 21%
    11:00 +13°C° 0 mm 2 mps 718 mmHg 19%
    12:00 +14°C° 0 mm 2 mps 717 mmHg 18%
    13:00 +15°C° 0 mm 2 mps 717 mmHg 16%
    14:00 +14°C° 0 mm 1 mps 716 mmHg 17%
    15:00 +14°C° 0 mm 1 mps 716 mmHg 19%
    16:00 +14°C° 0 mm 1 mps 716 mmHg 20%
    17:00 +13°C° 0 mm 1 mps 716 mmHg 21%
    18:00 +12°C° 0 mm 1 mps 716 mmHg 23%
    19:00 +11°C° 0 mm 1 mps 716 mmHg 24%
    20:00 +11°C° 0 mm 1 mps 716 mmHg 24%
    21:00 +10°C° 0 mm 1 mps 716 mmHg 24%
    22:00 +10°C° 0 mm 1 mps 716 mmHg 24%
    23:00 +10°C° 0 mm 1 mps 715 mmHg 24%

    Day after tomorrow, 14 December, Friday

    Time Temperature Precipitation Wind Pressure Humidity
    00:00 +10°C° 0 mm 1 mps 715 mmHg 24%
    01:00 +9°C° 0 mm 1 mps 715 mmHg 24%
    02:00 +9°C° 0 mm 1 mps 714 mmHg 24%
    03:00 +9°C° 0 mm 1 mps 714 mmHg 24%
    04:00 +9°C° 0 mm 1 mps 714 mmHg 24%
    05:00 +9°C° 0 mm 1 mps 714 mmHg 25%
    06:00 +8°C° 0 mm 1 mps 714 mmHg 26%
    07:00 +8°C° 0 mm 1 mps 714 mmHg 26%
    08:00 +10°C° 0 mm 1 mps 714 mmHg 23%
    09:00 +12°C° 0 mm 1 mps 714 mmHg 21%
    10:00 +14°C° 0 mm 1 mps 714 mmHg 18%
    11:00 +15°C° 0 mm 1 mps 714 mmHg 18%
    12:00 +15°C° 0 mm 1 mps 713 mmHg 17%
    13:00 +16°C° 0 mm 1 mps 712 mmHg 17%
    14:00 +15°C° 0 mm 1 mps 712 mmHg 19%
    15:00 +15°C° 0 mm 1 mps 712 mmHg 21%
    16:00 +14°C° 0 mm 1 mps 711 mmHg 24%
    17:00 +14°C° 0 mm 1 mps 711 mmHg 24%
    18:00 +12°C° 0 mm 0 mps 711 mmHg 25%
    19:00 +12°C° 0 mm 0 mps 711 mmHg 25%
    20:00 +11°C° 0 mm 0 mps 711 mmHg 25%
    21:00 +11°C° 0 mm 0 mps 711 mmHg 26%
    22:00 +10°C° 0 mm 0 mps 711 mmHg 26%
    23:00 +10°C° 0 mm 0 mps 711 mmHg 26%

    15 December, Saturday

    Time Temperature Precipitation Wind Pressure Humidity
    00:00 +10°C° 0 mm 0 mps 711 mmHg 26%
    01:00 +10°C° 0 mm 0 mps 711 mmHg 26%
    02:00 +10°C° 0 mm 1 mps 710 mmHg 26%
    03:00 +10°C° 0 mm 1 mps 710 mmHg 27%
    04:00 +9°C° 0 mm 1 mps 710 mmHg 27%
    05:00 +9°C° 0 mm 1 mps 711 mmHg 28%
    06:00 +9°C° 0 mm 1 mps 711 mmHg 28%
    07:00 +9°C° 0 mm 1 mps 711 mmHg 29%
    08:00 +11°C° 0 mm 1 mps 711 mmHg 25%
    09:00 +13°C° 0 mm 1 mps 712 mmHg 22%
    10:00 +16°C° 0 mm 1 mps 712 mmHg 18%
    11:00 +16°C° 0 mm 1 mps 712 mmHg 17%
    12:00 +18°C° 0 mm 1 mps 711 mmHg 16%
    13:00 +19°C° 0 mm 1 mps 711 mmHg 16%
    14:00 +18°C° 0 mm 1 mps 711 mmHg 18%
    15:00 +18°C° 0 mm 1 mps 711 mmHg 20%
    16:00 +16°C° 0 mm 1 mps 711 mmHg 22%
    17:00 +15°C° 0 mm 1 mps 711 mmHg 23%
    18:00 +14°C° 0 mm 1 mps 711 mmHg 24%
    19:00 +13°C° 0 mm 1 mps 712 mmHg 25%
    20:00 +12°C° 0 mm 1 mps 712 mmHg 26%
    21:00 +12°C° 0 mm 1 mps 712 mmHg 26%
    22:00 +12°C° 0 mm 1 mps 712 mmHg 26%
    23:00 +11°C° 0 mm 1 mps 712 mmHg 26%

    16 December, Sunday

    Time Temperature Precipitation Wind Pressure Humidity
    00:00 +11°C° 0 mm 1 mps 712 mmHg 26%
    01:00 +11°C° 0 mm 1 mps 711 mmHg 26%
    02:00 +10°C° 0 mm 1 mps 711 mmHg 26%
    03:00 +10°C° 0 mm 1 mps 711 mmHg 26%
    04:00 +10°C° 0 mm 1 mps 711 mmHg 26%
    05:00 +10°C° 0 mm 1 mps 711 mmHg 26%
    06:00 +10°C° 0 mm 1 mps 711 mmHg 26%
    07:00 +9°C° 0 mm 1 mps 712 mmHg 27%
    08:00 +12°C° 0 mm 1 mps 712 mmHg 24%
    09:00 +14°C° 0 mm 1 mps 712 mmHg 21%
    10:00 +16°C° 0 mm 1 mps 713 mmHg 18%
    11:00 +18°C° 0 mm 1 mps 712 mmHg 18%
    12:00 +18°C° 0 mm 1 mps 712 mmHg 18%
    13:00 +19°C° 0 mm 1 mps 711 mmHg 18%
    14:00 +18°C° 0 mm 1 mps 711 mmHg 19%
    15:00 +16°C° 0 mm 1 mps 711 mmHg 21%
    16:00 +16°C° 0 mm 1 mps 711 mmHg 23%
    17:00 +15°C° 0 mm 1 mps 711 mmHg 25%
    18:00 +14°C° 0 mm 1 mps 711 mmHg 26%
    19:00 +13°C° 0 mm 1 mps 711 mmHg 28%
    20:00 +12°C° 0 mm 1 mps 711 mmHg 29%
    21:00 +12°C° 0 mm 1 mps 711 mmHg 29%
    22:00 +11°C° 0 mm 1 mps 711 mmHg 29%
    23:00 +11°C° 0 mm 1 mps 711 mmHg 30%

    17 December, Monday

    Time Temperature Precipitation Wind Pressure Humidity
    00:00 +11°C° 0 mm 1 mps 710 mmHg 31%
    01:00 +9°C° 0 mm 2 mps 710 mmHg 31%
    02:00 +9°C° 0 mm 2 mps 710 mmHg 33%
    03:00 +9°C° 0 mm 2 mps 710 mmHg 35%
    04:00 +9°C° 0 mm 2 mps 710 mmHg 36%
    05:00 +10°C° 0 mm 1 mps 710 mmHg 38%
    06:00 +10°C° 0 mm 1 mps 711 mmHg 41%
    07:00 +10°C° 0 mm 1 mps 711 mmHg 43%
    08:00 +11°C° 0 mm 1 mps 711 mmHg 42%
    09:00 +12°C° 0 mm 1 mps 711 mmHg 42%
    10:00 +13°C° 0 mm 1 mps 711 mmHg 41%
    11:00 +13°C° 0 mm 1 mps 711 mmHg 42%
    12:00 +14°C° 0 mm 1 mps 711 mmHg 43%
    13:00 +14°C° 0 mm 1 mps 710 mmHg 44%
    14:00 +14°C° 0 mm 1 mps 710 mmHg 46%
    15:00 +13°C° 0 mm 2 mps 711 mmHg 48%
    16:00 +13°C° 0 mm 2 mps 711 mmHg 49%
    17:00 +13°C° 0 mm 2 mps 711 mmHg 51%
    18:00 +12°C° 0 mm 2 mps 711 mmHg 53%
    19:00 +10°C° 0 mm 2 mps 711 mmHg 55%
    20:00 +10°C° 0 mm 2 mps 712 mmHg 56%
    21:00 +9°C° 0 mm 2 mps 712 mmHg 57%
    22:00 +9°C° 0 mm 2 mps 712 mmHg 58%
    23:00 +10°C° 0 mm 1 mps 712 mmHg 58%
    Show more